Flag for Germany Weather past 2 weeks in Freiberg, Saxony, Germany

Now
70 °F

Clear.


Feels Like: 70 °F
Forecast: 66 / 85 °F
Wind: 7 mph from Southeast

Location: Dresden-Klotzsche

Current Time: Jul 3, 2015 at 1:11:58 AM

Latest Report: Jul 3, 2015 at 12:20 AM


Visibility: 10 mi

Pressure: 30.24 "Hg

Humidity: 57%

Dew point: 54 °F

Location of FreibergLocation

Historic Weather in Freiberg — Graph

°F

Freiberg temperature yesterday

Maximum temperature yesterday: 86 °F (at 3:50 PM)
Minimum temperature yesterday: 64 °F (at 2:50 AM)
Average temperature yesterday: 75 °F

Past Weeks' High & Low Weather Summary

 TemperatureHumidityPressure
High86 °F (Jul 2, 3:50 PM)100% (Jun 18, 10:20 AM)30.24 "Hg (Jun 18, 10:20 AM)
Low48 °F (Jun 19, 8:20 AM)28% (Jul 1, 5:20 PM)29.65 "Hg (Jun 23, 12:50 AM)
Average61 °F71%30.05 "Hg
* Reported Jun 17 11:20 PM — Jul 2 11:50 PM, Freiberg, Weather by CustomWeather, © 2015

Note: Actual official high and low records may vary slightly from our data, if they occured in-between our weather recording intervals... More about our weather records

Advertising

Freiberg weather history for previous 24 hours

 ConditionsComfort  
Time TempWeatherWind HumidityBarometerVisibility
11:50 PM
Thu, Jul 2
72 °FClear.5 mph53%30.24 "Hg10 mi
11:20 PM73 °FClear.7 mph50%30.24 "Hg10 mi
10:50 PM73 °FClear.8 mph47%30.24 "Hg10 mi
10:20 PM75 °FSunny.8 mph47%30.24 "Hg10 mi
9:50 PM75 °FSunny.9 mph44%30.24 "Hg10 mi
9:20 PM77 °FSunny.9 mph42%30.24 "Hg10 mi
8:50 PM79 °FSunny.8 mph39%30.24 "Hg10 mi
8:20 PM81 °FSunny.12 mph37%30.24 "Hg10 mi
7:50 PM81 °FSunny.13 mph37%30.24 "Hg10 mi
7:20 PM82 °FSunny.13 mph32%30.24 "Hg10 mi
6:50 PM82 °FSunny.14 mph32%30.24 "Hg10 mi
6:20 PM84 °FPassing clouds.14 mph31%30.21 "HgN/A
5:50 PM84 °FPassing clouds.15 mph31%30.21 "HgN/A
5:20 PM86 °FPassing clouds.15 mph31%30.21 "HgN/A
4:50 PM84 °FPassing clouds.13 mph33%30.21 "HgN/A
4:20 PM84 °FPassing clouds.15 mph33%30.21 "HgN/A
3:50 PM86 °FPassing clouds.14 mph31%30.21 "HgN/A
3:20 PM84 °FPassing clouds.14 mph31%30.21 "HgN/A
2:50 PM84 °FPassing clouds.9 mph29%30.24 "HgN/A
2:20 PM84 °FPassing clouds.10 mph31%30.24 "HgN/A
1:50 PM84 °FPassing clouds.10 mph31%30.24 "HgN/A
1:20 PM82 °FPassing clouds.10 mph32%30.24 "HgN/A
12:50 PM81 °FPassing clouds.10 mph37%30.24 "HgN/A
12:20 PM82 °FPassing clouds.9 mph35%30.24 "HgN/A
11:50 AM81 °FPassing clouds.9 mph37%30.24 "HgN/A
11:20 AM81 °FPassing clouds.9 mph39%30.24 "HgN/A
10:50 AM79 °FPassing clouds.9 mph42%30.24 "HgN/A
10:20 AM79 °FPassing clouds.8 mph42%30.24 "HgN/A
9:50 AM77 °FPassing clouds.10 mph42%30.24 "HgN/A
9:20 AM75 °FPassing clouds.12 mph44%30.24 "HgN/A
8:50 AM73 °FPassing clouds.9 mph50%30.24 "HgN/A
8:20 AM73 °FPassing clouds.8 mph50%30.24 "HgN/A
7:50 AM70 °FSunny.9 mph53%30.24 "Hg10 mi
7:20 AM68 °FSunny.8 mph56%30.24 "Hg10 mi
6:50 AM66 °FSunny.7 mph60%30.24 "Hg10 mi
6:20 AM66 °FSunny.7 mph60%30.24 "Hg10 mi
5:50 AM64 °FClear.7 mph64%30.24 "Hg10 mi
5:20 AM64 °FClear.6 mph64%30.21 "Hg10 mi
4:50 AM64 °FClear.7 mph64%30.21 "Hg10 mi
4:20 AM64 °FClear.6 mph64%30.21 "Hg10 mi
3:50 AM64 °FClear.7 mph64%30.24 "Hg10 mi
3:20 AM64 °FClear.7 mph64%30.21 "Hg10 mi
2:50 AM64 °FClear.8 mph64%30.24 "Hg10 mi
2:20 AM66 °FClear.7 mph60%30.24 "Hg10 mi
1:50 AM66 °FClear.5 mph60%30.21 "Hg10 mi
1:20 AM66 °FPassing clouds.3 mph60%30.21 "HgN/A
Weather by CustomWeather, © 2015

See weather overviewHow to use our weather pages